FW5399 Weather Reports


time (UTC)temp
C
wind
direction
speed
KPH
gust
KPH
rain 1hr
cm
rain 24hr
cm
rain mn
cm
humidity
%
barometer
mb
20260509234503 18 255 1.6 9.7 0.00 0.03 0.03 72 1001.3
20260509234405 18 292 1.6 11.3 0.00 0.03 0.03 73 1001.4
20260509233504 18 355 1.6 14.5 0.00 0.03 0.03 72 1001.5
20260509233005 18 349 1.6 14.5 0.00 0.03 0.03 72 1001.4
20260509232902 18 6 1.6 9.7 0.00 0.03 0.03 74 1001.6
20260509232356 17 330 1.6 12.9 0.00 0.03 0.03 74 1001.6
20260509231501 17 298 1.6 12.9 0.00 0.03 0.03 74 1001.6
20260509231000 17 299 1.6 9.7 0.00 0.03 0.03 74 1001.6
20260509230511 17 305 1.6 9.7 0.00 0.03 0.03 76 1001.8
20260509230007 17 352 1.6 6.4 0.00 0.03 0.03 75 1001.9
20260509225506 17 279 1.6 12.9 0.00 0.03 0.03 75 1001.9
20260509225002 17 306 1.6 12.9 0.00 0.03 0.03 74 1002.0
20260509224459 17 35 0.0 6.4 0.00 0.03 0.03 79 1001.9
20260509224000 16 277 0.0 4.8 0.00 0.03 0.03 81 1001.9
20260509223500 16 250 1.6 9.7 0.00 0.03 0.03 80 1001.9
20260509223401 16 273 1.6 9.7 0.00 0.03 0.03 81 1002.0
20260509222457 16 307 0.0 4.8 0.00 0.03 0.03 80 1002.1
20260509221957 16 253 0.0 4.8 0.00 0.03 0.03 79 1001.9
20260509221458 16 305 1.6 8.0 0.00 0.03 0.03 78 1002.1
20260509220959 16 96 1.6 12.9 0.00 0.03 0.03 78 1002.0
20260509220459 16 4 3.2 12.9 0.00 0.03 0.03 78 1002.0
20260509215957 16 301 1.6 8.0 0.00 0.03 0.03 76 1002.0
20260509215458 17 304 0.0 4.8 0.00 0.03 0.03 76 1002.1
20260509214959 17 239 0.0 3.2 0.00 0.03 0.03 80 1001.9
20260509214459 16 281 0.0 3.2 0.00 0.03 0.03 82 1002.0
20260509214133 16 291 0.0 4.8 0.00 0.03 0.03 84 1002.1
20260509212957 15 308 0.0 6.4 0.00 0.03 0.03 85 1002.1
20260509212456 15 264 1.6 4.8 0.00 0.03 0.03 87 1002.1
20260509211957 15 265 1.6 6.4 0.00 0.03 0.03 89 1002.1
20260509211457 14 237 0.0 6.4 0.00 0.03 0.03 92 1002.2
20260509210956 13 303 0.0 3.2 0.00 0.03 0.03 97 1002.2
20260509210453 13 267 0.0 3.2 0.00 0.03 0.03 100 1002.1
20260509205953 13 38 0.0 3.2 0.00 0.03 0.03 100 1002.2
20260509205836 12 313 0.0 3.2 0.00 0.03 0.03 100 1002.2
20260509204947 13 359 0.0 1.6 0.00 0.03 0.03 100 1002.2
20260509204440 12 6 0.0 1.6 0.00 0.03 0.03 100 1002.2
20260509203933 12 290 0.0 0.0 0.00 0.03 0.03 100 1002.4
20260509203816 11 241 0.0 0.0 0.00 0.03 0.03 100 1002.2
20260509202921 11 241 0.0 0.0 0.03 0.03 0.03 100 1002.2
20260509202418 11 240 0.0 0.0 0.03 0.03 0.03 100 1002.2
20260509201910 10 241 0.0 0.0 0.03 0.03 0.03 100 1002.2
20260509201404 10 241 0.0 0.0 0.03 0.03 0.03 100 1002.3
20260509200857 10 240 0.0 0.0 0.03 0.03 0.03 100 1002.3
20260509200351 10 241 0.0 0.0 0.03 0.03 0.03 100 1002.2
20260509195847 10 240 0.0 0.0 0.03 0.03 0.03 100 1002.2
20260509195340 9 240 0.0 0.0 0.03 0.03 0.03 100 1002.0
20260509194833 9 240 0.0 0.0 0.03 0.03 0.03 100 1002.1
20260509194327 8 240 0.0 0.0 0.03 0.05 0.03 100 1002.2
20260509193821 8 240 0.0 0.0 0.03 0.05 0.03 100 1002.0
20260509193317 8 239 0.0 0.0 0.03 0.05 0.03 100 1002.1
20260509192809 8 239 0.0 0.0 0.00 0.03 0.00 100 1002.2
20260509192311 7 239 0.0 0.0 0.00 0.03 0.00 100 1002.1
20260509192206 7 266 0.0 0.0 0.00 0.03 0.00 100 1002.0
20260509191705 7 266 0.0 0.0 0.00 0.03 0.00 100 1002.1
20260509190747 7 266 0.0 0.0 0.00 0.03 0.00 100 1002.1
20260509190239 6 266 0.0 0.0 0.00 0.03 0.00 100 1002.1
20260509190150 6 266 0.0 0.0 0.00 0.03 0.00 100 1002.1
20260509185227 6 266 0.0 0.0 0.00 0.03 0.00 100 1002.1
20260509185113 6 266 0.0 0.0 0.00 0.03 0.00 100 1002.2
20260509184217 6 267 0.0 0.0 0.00 0.03 0.00 100 1002.2
20260509183709 6 267 0.0 0.0 0.00 0.03 0.00 100 1002.2
20260509183221 6 267 0.0 0.0 0.00 0.03 0.00 100 1002.2
20260509182653 6 267 0.0 0.0 0.00 0.03 0.00 100 1002.3
20260509182147 6 267 0.0 0.0 0.00 0.03 0.00 100 1002.1
20260509181641 6 267 0.0 0.0 0.00 0.03 0.00 100 1002.1
20260509181137 6 267 0.0 0.0 0.00 0.03 0.00 100 1002.1
20260509180630 6 267 0.0 0.0 0.00 0.03 0.00 100 1002.2
20260509180123 6 267 0.0 0.0 0.00 0.03 0.00 100 1002.1
20260509175617 6 267 0.0 0.0 0.00 0.03 0.00 100 1002.2
20260509175114 6 267 0.0 0.0 0.00 0.03 0.00 100 1002.1
20260509174608 6 267 0.0 0.0 0.00 0.03 0.00 100 1002.2
20260509174110 6 267 0.0 0.0 0.00 0.03 0.00 100 1002.0
20260509173606 6 265 0.0 0.0 0.00 0.03 0.00 100 1002.0
20260509173108 6 265 0.0 0.0 0.00 0.03 0.00 100 1002.1
20260509172608 6 265 0.0 0.0 0.00 0.03 0.00 100 1002.0
20260509172106 6 265 0.0 0.0 0.00 0.05 0.00 100 1002.0
20260509171609 6 265 0.0 0.0 0.00 0.05 0.00 100 1001.9
20260509171107 6 265 0.0 0.0 0.00 0.05 0.00 100 1001.9
20260509170605 6 265 0.0 0.0 0.00 0.05 0.00 100 1001.8
20260509170114 6 265 0.0 0.0 0.00 0.05 0.00 100 1001.8
20260509165607 6 265 0.0 0.0 0.00 0.05 0.00 100 1001.8
20260509165104 6 265 0.0 0.0 0.00 0.05 0.00 100 1001.8
20260509164605 6 265 0.0 0.0 0.00 0.05 0.00 100 1001.8
20260509164449 6 265 0.0 0.0 0.00 0.05 0.00 99 1001.8
20260509163602 6 265 0.0 0.0 0.00 0.05 0.00 99 1001.9
20260509163102 6 265 0.0 0.0 0.00 0.05 0.00 100 1001.8
20260509162554 6 265 0.0 0.0 0.00 0.05 0.00 100 1001.9
20260509162100 7 265 0.0 0.0 0.00 0.05 0.00 100 1001.8
20260509161943 7 265 0.0 0.0 0.00 0.05 0.00 99 1001.8
20260509161051 7 265 0.0 0.0 0.00 0.05 0.00 99 1001.8
20260509160550 7 265 0.0 0.0 0.00 0.08 0.00 99 1001.7
20260509160053 7 265 0.0 0.0 0.00 0.08 0.00 99 1001.8
20260509155552 7 265 0.0 0.0 0.00 0.08 0.00 99 1001.9
20260509155054 7 265 0.0 0.0 0.00 0.10 0.00 99 1001.9
20260509154551 8 265 0.0 0.0 0.00 0.13 0.00 100 1001.8
20260509154052 8 265 0.0 0.0 0.00 0.13 0.00 100 1001.8
20260509153551 8 265 0.0 0.0 0.00 0.13 0.00 99 1001.8
20260509153441 8 265 0.0 0.0 0.00 0.13 0.00 99 1001.8
20260509152546 8 265 0.0 0.0 0.00 0.15 0.00 99 1001.8
20260509152045 8 265 0.0 0.0 0.00 0.18 0.00 100 1001.8
20260509151546 8 265 0.0 0.0 0.00 0.33 0.00 100 1001.9
20260509151045 8 265 0.0 0.0 0.00 0.41 0.00 100 1001.9
20260509150546 8 265 0.0 0.0 0.00 0.48 0.00 100 1001.9
20260509150045 9 265 0.0 0.0 0.00 0.51 0.00 100 1001.9
20260509145543 9 265 0.0 0.0 0.00 0.56 0.00 100 1002.0
20260509145436 9 265 0.0 0.0 0.00 0.58 0.00 100 1002.0
20260509145023 9 265 0.0 0.0 0.00 0.64 0.00 99 1002.0
20260509144102 9 265 0.0 0.0 0.00 0.69 0.00 99 1002.0
20260509143537 10 265 0.0 0.0 0.00 0.71 0.00 100 1002.0
20260509143035 10 265 0.0 0.0 0.00 0.71 0.00 100 1002.0
20260509142524 10 265 0.0 0.0 0.00 0.74 0.00 100 1002.2
20260509142411 10 265 0.0 0.0 0.00 0.76 0.00 100 1002.3
20260509141512 10 265 0.0 0.0 0.00 0.76 0.00 100 1002.3
20260509141426 10 265 0.0 0.0 0.00 0.76 0.00 100 1002.5
20260509140501 10 265 0.0 0.0 0.00 0.79 0.00 100 1002.4
20260509135955 10 265 0.0 0.0 0.00 0.79 0.00 100 1002.5
20260509135449 10 265 0.0 0.0 0.00 0.79 0.00 100 1002.4
20260509135335 10 265 0.0 0.0 0.00 0.84 0.00 100 1002.4
20260509134437 10 265 0.0 0.0 0.00 0.86 0.00 100 1002.6
20260509134100 10 265 0.0 0.0 0.00 0.89 0.00 100 1002.5
20260509132917 10 266 0.0 0.0 0.00 1.07 0.00 100 1002.5
20260509132823 10 266 0.0 0.0 0.00 1.14 0.00 100 1002.6
20260509131904 10 266 0.0 0.0 0.00 1.17 0.00 100 1002.6
20260509131412 10 266 0.0 0.0 0.00 1.17 0.00 100 1002.7
20260509130852 10 266 0.0 0.0 0.00 1.22 0.00 100 1002.6
20260509130347 10 266 0.0 0.0 0.00 1.27 0.00 100 1002.6
20260509125841 10 266 0.0 0.0 0.00 1.30 0.00 100 1002.7
20260509125334 10 266 0.0 0.0 0.00 1.30 0.00 99 1002.8
20260509124829 10 266 0.0 0.0 0.00 1.35 0.00 99 1002.8
20260509124323 11 266 0.0 0.0 0.00 1.37 0.00 100 1002.8
20260509123817 11 266 0.0 0.0 0.00 1.40 0.00 100 1002.8
20260509123654 11 266 0.0 0.0 0.00 1.45 0.00 100 1002.8
20260509122812 11 266 0.0 0.0 0.00 1.45 0.00 100 1002.9
20260509122308 11 266 0.0 0.0 0.00 1.45 0.00 100 1002.9
20260509121804 11 266 0.0 0.0 0.00 1.45 0.00 100 1002.8
20260509121304 11 266 0.0 0.0 0.00 1.47 0.00 100 1002.9
20260509120805 11 266 0.0 0.0 0.00 1.50 0.00 100 1002.8
20260509120302 11 266 0.0 0.0 0.00 1.50 0.00 100 1002.6
20260509115803 11 266 0.0 0.0 0.00 1.50 1.50 100 1002.6
20260509115302 11 266 0.0 0.0 0.00 1.50 1.50 100 1002.6
20260509114802 11 266 0.0 0.0 0.00 1.52 1.50 100 1002.4
20260509114303 11 265 0.0 0.0 0.00 1.55 1.50 100 1002.6
20260509113803 11 265 0.0 0.0 0.00 1.57 1.50 100 1002.5
20260509113300 11 266 0.0 0.0 0.00 1.60 1.50 100 1002.6
20260509112802 11 266 0.0 0.0 0.00 1.60 1.50 100 1002.7
20260509112653 11 266 0.0 0.0 0.00 1.60 1.50 100 1002.7
20260509111813 11 265 0.0 0.0 0.00 1.60 1.50 100 1002.8
20260509111704 11 266 0.0 0.0 0.00 1.60 1.50 100 1002.7
20260509110758 11 266 0.0 0.0 0.00 1.60 1.50 100 1002.8
20260509110256 11 266 0.0 0.0 0.00 1.63 1.50 100 1003.0
20260509105752 11 266 0.0 0.0 0.00 1.63 1.50 100 1003.0
20260509105252 11 266 0.0 0.0 0.00 1.63 1.50 100 1003.1
20260509104800 11 266 0.0 0.0 0.00 1.63 1.50 100 1003.2
20260509104249 11 266 0.0 0.0 0.00 1.63 1.50 100 1003.2
20260509104152 11 266 0.0 0.0 0.00 1.63 1.50 99 1003.2
20260509103247 11 265 0.0 0.0 0.00 1.63 1.50 99 1003.3
20260509103145 11 266 0.0 0.0 0.00 1.63 1.50 99 1003.5
20260509102249 11 266 0.0 0.0 0.00 1.63 1.50 99 1003.5
20260509101759 11 266 0.0 0.0 0.00 1.63 1.50 100 1003.6
20260509101244 11 266 0.0 0.0 0.00 1.63 1.50 100 1003.6
20260509100738 11 266 0.0 0.0 0.00 1.63 1.50 100 1003.5
20260509100614 11 266 0.0 0.0 0.00 1.65 1.50 100 1003.6
20260509095731 11 265 0.0 0.0 0.00 1.65 1.50 100 1003.7
20260509095235 11 266 0.0 0.0 0.00 1.65 1.50 100 1003.6
20260509094737 11 266 0.0 0.0 0.00 1.65 1.50 100 1003.7
20260509094232 10 266 0.0 0.0 0.00 1.65 1.50 100 1003.7
20260509093723 10 265 0.0 0.0 0.00 1.73 1.50 99 1003.8
20260509093612 10 265 0.0 0.0 0.00 1.78 1.50 99 1003.8
20260509092712 10 266 0.0 0.0 0.00 1.83 1.50 99 1003.6
20260509092206 10 266 0.0 0.0 0.00 1.85 1.50 99 1003.6
20260509091831 10 266 0.0 0.0 0.00 1.91 1.50 99 1003.6
20260509091814 10 266 0.0 0.0 0.00 1.93 1.50 99 1003.7
20260509091727 10 266 0.0 0.0 0.00 1.91 1.50 99 1003.7
20260509085636 11 266 0.0 0.0 0.00 1.96 1.50 99 1003.6
20260509085343 11 266 0.0 0.0 0.00 1.96 1.50 99 1003.5
20260509085238 11 266 0.0 0.0 0.00 1.96 1.50 99 1003.5
20260509083619 11 266 0.0 0.0 0.00 1.98 1.50 99 1003.6
20260509083114 11 266 0.0 0.0 0.00 2.01 1.50 99 1003.7
20260509083012 10 266 0.0 0.0 0.00 2.01 1.50 99 1003.5
20260509082118 10 266 0.0 0.0 0.00 2.03 1.50 99 1003.5
20260509081614 10 266 0.0 0.0 0.00 2.06 1.50 99 1003.4
20260509081113 10 265 0.0 0.0 0.00 2.06 1.50 98 1003.3
20260509080615 10 266 0.0 0.0 0.00 2.06 1.50 98 1003.3
20260509080257 10 266 0.0 0.0 0.00 2.08 1.50 98 1003.3
20260509075111 11 265 0.0 0.0 0.00 2.08 1.50 98 1003.5
20260509074610 11 265 0.0 0.0 0.00 2.08 1.50 98 1003.4
20260509074106 11 265 0.0 0.0 0.00 2.11 1.50 98 1003.4
20260509073609 11 266 0.0 0.0 0.00 2.11 1.50 98 1003.5
20260509073106 11 266 0.0 0.0 0.00 2.11 1.50 98 1003.4
20260509072607 11 266 0.0 0.0 0.00 2.13 1.50 97 1003.3
20260509072502 11 266 0.0 0.0 0.00 2.16 1.50 97 1003.3
20260509071612 11 266 0.0 0.0 0.00 2.16 1.50 97 1003.4
20260509071113 11 266 0.0 0.0 0.00 2.18 1.50 97 1003.2
20260509070612 11 266 0.0 0.0 0.00 2.18 1.50 97 1003.0
20260509070120 11 266 0.0 0.0 0.00 2.18 1.50 97 1002.9
20260509065605 12 266 0.0 0.0 0.00 2.21 1.50 97 1003.0
20260509065104 12 266 0.0 0.0 0.00 2.21 1.50 97 1003.0
20260509064959 12 302 0.0 0.0 0.00 2.21 1.50 97 1003.0
20260509064511 12 302 0.0 0.0 0.00 2.21 1.50 97 1003.1
20260509063602 12 302 0.0 1.6 0.00 2.21 1.50 97 1002.9
20260509063101 12 302 0.0 1.6 0.00 2.21 1.50 97 1002.8
20260509062953 12 303 0.0 0.0 0.00 2.21 1.50 96 1002.9
20260509062234 12 303 0.0 0.0 0.00 2.21 1.50 96 1002.7
20260509061055 12 303 0.0 0.0 0.00 2.21 1.50 96 1002.8
20260509060555 13 303 0.0 0.0 0.00 2.21 1.50 96 1002.7
20260509060056 13 303 0.0 0.0 0.00 2.21 1.50 96 1002.7
20260509055552 13 303 0.0 0.0 0.00 2.21 1.50 96 1002.7
20260509055050 13 303 0.0 0.0 0.00 2.21 1.50 95 1002.7
20260509054952 13 303 0.0 0.0 0.00 2.21 1.50 95 1002.8
20260509054511 13 303 0.0 0.0 0.00 2.21 1.50 95 1002.8
20260509053733 13 303 0.0 0.0 0.00 2.21 1.50 95 1002.7
20260509052553 14 303 0.0 0.0 0.00 2.21 1.50 94 1002.7
20260509052051 15 303 0.0 0.0 0.00 2.21 1.50 93 1002.8
20260509051940 15 303 0.0 0.0 0.00 2.21 1.50 93 1002.7
20260509051047 15 303 0.0 0.0 0.00 2.21 1.50 93 1002.8
20260509050547 15 305 0.0 0.0 0.00 2.21 1.50 92 1002.7
20260509050048 15 305 0.0 0.0 0.00 2.21 1.50 91 1002.9
20260509045551 16 305 0.0 0.0 0.00 2.21 1.50 91 1002.8
20260509045049 16 305 0.0 0.0 0.00 2.21 1.50 91 1002.8
20260509044547 16 305 0.0 0.0 0.00 2.21 1.50 91 1002.7
20260509044044 16 305 0.0 0.0 0.00 2.21 1.50 91 1002.9
20260509043941 16 305 0.0 0.0 0.00 2.21 1.50 91 1002.7
20260509043446 16 305 0.0 0.0 0.00 2.21 1.50 90 1002.8
20260509042542 16 305 0.0 0.0 0.00 2.21 1.50 89 1002.9
20260509042040 16 305 0.0 0.0 0.00 2.21 1.50 88 1002.8
20260509041536 17 305 0.0 0.0 0.00 2.21 1.50 87 1002.9
20260509041034 17 305 0.0 0.0 0.00 2.21 1.50 86 1002.8
20260509040541 17 305 0.0 0.0 0.00 2.21 1.50 86 1002.9
20260509040034 17 305 0.0 0.0 0.00 2.26 1.50 84 1002.9
20260509035529 18 305 0.0 1.6 0.00 2.29 1.50 82 1003.0
20260509035022 18 305 0.0 3.2 0.00 2.29 1.50 79 1003.0
20260509034517 18 326 0.0 3.2 0.00 2.29 1.50 80 1003.0
20260509034139 18 307 0.0 3.2 0.00 2.29 1.50 81 1002.9
20260509033131 20 230 0.0 1.6 0.00 2.29 1.50 77 1003.0
20260509031944 20 227 0.0 3.2 0.00 2.29 1.50 72 1003.1
20260509031437 21 258 0.0 4.8 0.00 2.29 1.50 70 1003.0
20260509031058 21 286 1.6 9.7 0.00 2.29 1.50 69 1002.9
20260509025918 21 231 1.6 9.7 0.00 2.29 1.50 68 1002.9
20260509025412 21 307 1.6 11.3 0.00 2.29 1.50 67 1002.9
20260509024907 21 270 1.6 11.3 0.00 2.29 1.50 69 1003.1
20260509024400 21 301 1.6 8.0 0.00 2.29 1.50 67 1003.2
20260509023855 21 262 1.6 8.0 0.00 2.29 1.50 70 1003.3
20260509023736 21 235 1.6 6.4 0.00 2.29 1.50 68 1003.3
20260509022843 22 305 1.6 9.7 0.00 2.29 1.50 71 1003.3
20260509022507 21 156 1.6 19.3 0.00 2.29 1.50 66 1003.3
20260509021325 22 271 1.6 6.4 0.00 2.29 1.50 64 1003.2
20260509020818 22 248 1.6 9.7 0.00 2.29 1.50 64 1003.2
20260509020313 22 347 1.6 9.7 0.00 2.29 1.50 64 1003.4
20260509015807 22 230 1.6 8.0 0.00 2.29 1.50 62 1003.4
20260509015301 23 286 1.6 8.0 0.00 2.29 1.50 64 1003.5
20260509014755 22 331 3.2 9.7 0.00 2.29 1.50 68 1003.4
20260509014249 22 290 1.6 9.7 0.00 2.29 1.50 66 1003.5
20260509013742 23 278 0.0 3.2 0.00 2.29 1.50 67 1003.6
20260509013237 22 238 0.0 3.2 0.00 2.29 1.50 74 1003.5
20260509012730 22 201 0.0 4.8 0.00 2.29 1.50 68 1003.6
20260509012225 21 251 1.6 6.4 0.00 2.29 1.50 69 1003.6
20260509011719 21 275 1.6 9.7 0.00 2.29 1.50 72 1003.7
20260509011212 21 328 1.6 9.7 0.00 2.29 1.50 72 1003.8
20260509010707 21 265 1.6 8.0 0.00 2.29 1.50 74 1003.8
20260509010200 20 286 1.6 8.0 0.00 2.29 1.50 75 1003.9
20260509010118 21 337 0.0 8.0 0.00 2.29 1.50 74 1004.0
20260509005148 21 281 0.0 3.2 0.00 2.29 1.50 76 1004.1
20260509004642 20 282 0.0 3.2 0.00 2.29 1.50 78 1004.1
20260509004139 20 216 1.6 6.4 0.00 2.29 1.50 78 1004.1
20260509003630 20 156 1.6 9.7 0.00 2.29 1.50 76 1004.3
20260509003124 20 200 1.6 9.7 0.00 2.29 1.50 76 1004.2
20260509002619 20 224 1.6 6.4 0.00 2.29 1.50 76 1004.4
20260509002112 20 278 1.6 6.4 0.00 2.29 1.50 76 1004.4
20260509001603 20 285 1.6 6.4 0.00 2.29 1.50 79 1004.6
20260509001103 19 267 3.2 11.3 0.00 2.29 1.50 77 1004.6
20260509000952 19 343 3.2 11.3 0.00 2.29 1.50 79 1004.6
20260509000044 19 155 3.2 9.7 0.00 2.29 1.50 80 1004.8
20260508235544 19 189 3.2 9.7 0.00 2.29 1.50 82 1004.9
20260508235042 18 245 1.6 9.7 0.00 2.29 1.50 84 1005.2